Tracking 34094 objects as of 11-May-2026
HD Live streaming from Space Station
objects crossing your sky now

STARLINK-11084

Track STARLINK-11084 now!
10-day predictions
STARLINK-11084 is classified as:


NORAD ID: 59717
Int'l Code: 2024-088K
Perigee: 366.3 km
Apogee: 367.5 km
Inclination: 53.2 °
Period: 91.7 minutes
Semi major axis: 6737 km
RCS: Unknown
Launch date: May 10, 2024
Source: United States (US)
Launch site: AIR FORCE WESTERN TEST RANGE (AFWTR)
Your satellite tracking list
Your tracking list is empty




NASA's NSSDC Master Catalog

Two Line Element Set (TLE):
1 59717U 24088K   26129.99951202  .00000866  00000-0  12004-4 0  9999
2 59717  53.1595  23.8846 0000904 104.2913 255.8205 15.69702545115900
Source of the keplerian elements: AFSPC